When you browse on this site, cookies collect data to enhance your experience and personalize the content and advertising you see.
Visit our Privacy Policy to learn more. By continuing to use the site, you agree to this use of cookies and data.
  • In Czech Republic
  • List of Countries
  • For 7 days
  • Water Temperature
  • Satellite Maps
  • Weather Map
  • Weather Widgets
  • user-avatar
    Login

    Hourly Weather Georgetown

    Today, 15 December, Saturday

    Time Temperature Precipitation Wind Pressure Humidity
    00:00 +25°C° 0 mm 5 mps 736 mmHg 24%
    01:00 +23°C° 0 mm 5 mps 736 mmHg 26%
    02:00 +23°C° 0 mm 5 mps 736 mmHg 26%
    03:00 +23°C° 0 mm 5 mps 736 mmHg 27%
    04:00 +22°C° 0 mm 5 mps 736 mmHg 27%
    05:00 +22°C° 0 mm 5 mps 736 mmHg 27%
    06:00 +22°C° 0 mm 5 mps 737 mmHg 27%
    07:00 +23°C° 0 mm 5 mps 737 mmHg 27%
    08:00 +26°C° 0 mm 5 mps 737 mmHg 25%
    09:00 +28°C° 0 mm 4 mps 737 mmHg 24%
    10:00 +30°C° 0 mm 4 mps 738 mmHg 22%
    11:00 +31°C° 0 mm 3 mps 737 mmHg 23%
    12:00 +33°C° 0 mm 3 mps 737 mmHg 24%
    13:00 +34°C° 0 mm 2 mps 736 mmHg 25%
    14:00 +34°C° 0 mm 2 mps 736 mmHg 24%
    15:00 +34°C° 0 mm 3 mps 735 mmHg 24%
    16:00 +34°C° 0 mm 3 mps 735 mmHg 24%
    17:00 +31°C° 0 mm 3 mps 735 mmHg 26%
    18:00 +29°C° 0 mm 4 mps 735 mmHg 29%
    19:00 +27°C° 0 mm 4 mps 736 mmHg 32%
    20:00 +27°C° 0 mm 4 mps 736 mmHg 30%
    21:00 +27°C° 0 mm 4 mps 736 mmHg 27%
    22:00 +27°C° 0 mm 5 mps 737 mmHg 25%
    23:00 +26°C° 0 mm 5 mps 736 mmHg 24%

    Tomorrow, 16 December, Sunday

    Time Temperature Precipitation Wind Pressure Humidity
    00:00 +26°C° 0 mm 5 mps 736 mmHg 24%
    01:00 +26°C° 0 mm 5 mps 736 mmHg 24%
    02:00 +25°C° 0 mm 5 mps 736 mmHg 24%
    03:00 +25°C° 0 mm 5 mps 736 mmHg 24%
    04:00 +25°C° 0 mm 5 mps 735 mmHg 24%
    05:00 +23°C° 0 mm 5 mps 736 mmHg 24%
    06:00 +23°C° 0 mm 5 mps 736 mmHg 24%
    07:00 +23°C° 0 mm 6 mps 736 mmHg 25%
    08:00 +26°C° 0 mm 6 mps 737 mmHg 23%
    09:00 +28°C° 0 mm 6 mps 737 mmHg 21%
    10:00 +32°C° 0 mm 6 mps 738 mmHg 19%
    11:00 +33°C° 0 mm 6 mps 737 mmHg 19%
    12:00 +34°C° 0 mm 5 mps 737 mmHg 18%
    13:00 +35°C° 0 mm 5 mps 736 mmHg 18%
    14:00 +35°C° 0 mm 5 mps 736 mmHg 18%
    15:00 +35°C° 0 mm 5 mps 736 mmHg 18%
    16:00 +35°C° 0 mm 4 mps 735 mmHg 18%
    17:00 +33°C° 0 mm 5 mps 736 mmHg 19%
    18:00 +30°C° 0 mm 6 mps 736 mmHg 19%
    19:00 +28°C° 0 mm 6 mps 736 mmHg 20%
    20:00 +28°C° 0 mm 6 mps 737 mmHg 20%
    21:00 +27°C° 0 mm 7 mps 737 mmHg 21%
    22:00 +26°C° 0 mm 7 mps 737 mmHg 21%
    23:00 +24°C° 0 mm 7 mps 737 mmHg 21%

    Day after tomorrow, 17 December, Monday

    Time Temperature Precipitation Wind Pressure Humidity
    00:00 +24°C° 0 mm 8 mps 737 mmHg 21%
    01:00 +23°C° 0 mm 8 mps 737 mmHg 21%
    02:00 +23°C° 0 mm 8 mps 737 mmHg 21%
    03:00 +22°C° 0 mm 9 mps 737 mmHg 21%
    04:00 +22°C° 0 mm 9 mps 736 mmHg 21%
    05:00 +21°C° 0 mm 9 mps 737 mmHg 22%
    06:00 +21°C° 0 mm 9 mps 737 mmHg 23%
    07:00 +21°C° 0 mm 9 mps 738 mmHg 24%
    08:00 +22°C° 0 mm 9 mps 738 mmHg 23%
    09:00 +24°C° 0 mm 9 mps 738 mmHg 23%
    10:00 +27°C° 0 mm 9 mps 739 mmHg 22%
    11:00 +28°C° 0 mm 8 mps 738 mmHg 21%
    12:00 +29°C° 0 mm 7 mps 737 mmHg 20%
    13:00 +32°C° 0 mm 7 mps 736 mmHg 18%
    14:00 +32°C° 0 mm 6 mps 736 mmHg 19%
    15:00 +32°C° 0 mm 6 mps 735 mmHg 19%
    16:00 +32°C° 0 mm 6 mps 735 mmHg 19%
    17:00 +29°C° 0 mm 6 mps 735 mmHg 21%
    18:00 +27°C° 0 mm 6 mps 736 mmHg 23%
    19:00 +24°C° 0 mm 7 mps 736 mmHg 24%
    20:00 +24°C° 0 mm 7 mps 737 mmHg 25%
    21:00 +23°C° 0 mm 8 mps 737 mmHg 26%
    22:00 +22°C° 0 mm 8 mps 738 mmHg 26%
    23:00 +22°C° 0 mm 9 mps 738 mmHg 27%

    18 December, Tuesday

    Time Temperature Precipitation Wind Pressure Humidity
    00:00 +21°C° 0 mm 9 mps 738 mmHg 28%
    01:00 +21°C° 0 mm 9 mps 737 mmHg 28%
    02:00 +19°C° 0 mm 9 mps 737 mmHg 30%
    03:00 +19°C° 0 mm 9 mps 737 mmHg 32%
    04:00 +18°C° 0 mm 9 mps 737 mmHg 34%
    05:00 +18°C° 0 mm 9 mps 737 mmHg 35%
    06:00 +18°C° 0 mm 9 mps 737 mmHg 36%
    07:00 +17°C° 0 mm 10 mps 738 mmHg 37%
    08:00 +19°C° 0 mm 9 mps 738 mmHg 34%
    09:00 +22°C° 0 mm 9 mps 738 mmHg 30%
    10:00 +24°C° 0 mm 9 mps 739 mmHg 26%
    11:00 +27°C° 0 mm 8 mps 738 mmHg 24%
    12:00 +28°C° 0 mm 7 mps 737 mmHg 23%
    13:00 +30°C° 0 mm 6 mps 736 mmHg 21%
    14:00 +30°C° 0 mm 6 mps 736 mmHg 21%
    15:00 +30°C° 0 mm 5 mps 736 mmHg 21%
    16:00 +30°C° 0 mm 5 mps 735 mmHg 22%
    17:00 +28°C° 0 mm 5 mps 736 mmHg 23%
    18:00 +26°C° 0 mm 6 mps 736 mmHg 24%
    19:00 +24°C° 0 mm 6 mps 736 mmHg 26%
    20:00 +23°C° 0 mm 7 mps 737 mmHg 26%
    21:00 +23°C° 0 mm 8 mps 737 mmHg 26%
    22:00 +22°C° 0 mm 9 mps 738 mmHg 26%
    23:00 +21°C° 0 mm 9 mps 738 mmHg 26%

    19 December, Wednesday

    Time Temperature Precipitation Wind Pressure Humidity
    00:00 +21°C° 0 mm 9 mps 737 mmHg 26%
    01:00 +19°C° 0 mm 9 mps 737 mmHg 27%
    02:00 +19°C° 0 mm 9 mps 737 mmHg 28%
    03:00 +18°C° 0 mm 9 mps 737 mmHg 29%
    04:00 +18°C° 0 mm 10 mps 737 mmHg 30%
    05:00 +18°C° 0 mm 9 mps 737 mmHg 31%
    06:00 +17°C° 0 mm 9 mps 737 mmHg 32%
    07:00 +17°C° 0 mm 9 mps 738 mmHg 33%
    08:00 +19°C° 0 mm 9 mps 738 mmHg 30%
    09:00 +22°C° 0 mm 9 mps 738 mmHg 27%
    10:00 +24°C° 0 mm 9 mps 738 mmHg 25%
    11:00 +26°C° 0 mm 8 mps 738 mmHg 23%
    12:00 +28°C° 0 mm 7 mps 737 mmHg 21%
    13:00 +30°C° 0 mm 6 mps 736 mmHg 19%
    14:00 +30°C° 0 mm 6 mps 736 mmHg 19%
    15:00 +30°C° 0 mm 5 mps 735 mmHg 20%
    16:00 +30°C° 0 mm 5 mps 735 mmHg 20%
    17:00 +28°C° 0 mm 5 mps 735 mmHg 21%
    18:00 +26°C° 0 mm 5 mps 736 mmHg 23%
    19:00 +24°C° 0 mm 6 mps 736 mmHg 24%
    20:00 +23°C° 0 mm 6 mps 737 mmHg 24%
    21:00 +22°C° 0 mm 7 mps 737 mmHg 24%
    22:00 +22°C° 0 mm 7 mps 737 mmHg 24%
    23:00 +21°C° 0 mm 8 mps 737 mmHg 25%

    20 December, Thursday

    Time Temperature Precipitation Wind Pressure Humidity
    00:00 +21°C° 0 mm 8 mps 737 mmHg 25%
    01:00 +20°C° 0 mm 8 mps 736 mmHg 26%
    02:00 +20°C° 0 mm 8 mps 736 mmHg 28%
    03:00 +18°C° 0 mm 8 mps 736 mmHg 29%
    04:00 +18°C° 0 mm 9 mps 736 mmHg 31%
    05:00 +18°C° 0 mm 9 mps 736 mmHg 32%
    06:00 +17°C° 0 mm 9 mps 737 mmHg 34%
    07:00 +17°C° 0 mm 9 mps 737 mmHg 36%
    08:00 +19°C° 0 mm 9 mps 737 mmHg 32%
    09:00 +22°C° 0 mm 9 mps 738 mmHg 29%
    10:00 +24°C° 0 mm 9 mps 738 mmHg 25%
    11:00 +26°C° 0 mm 8 mps 737 mmHg 23%
    12:00 +28°C° 0 mm 7 mps 737 mmHg 22%
    13:00 +29°C° 0 mm 6 mps 736 mmHg 20%
    14:00 +29°C° 0 mm 6 mps 735 mmHg 20%
    15:00 +29°C° 0 mm 5 mps 735 mmHg 20%
    16:00 +30°C° 0 mm 4 mps 735 mmHg 21%
    17:00 +28°C° 0 mm 5 mps 735 mmHg 22%
    18:00 +26°C° 0 mm 5 mps 736 mmHg 24%
    19:00 +25°C° 0 mm 5 mps 736 mmHg 26%
    20:00 +23°C° 0 mm 6 mps 736 mmHg 26%
    21:00 +22°C° 0 mm 6 mps 737 mmHg 26%
    22:00 +22°C° 0 mm 7 mps 737 mmHg 26%
    23:00 +21°C° 0 mm 7 mps 737 mmHg 27%
    Show more